Location: Unspecified
(17.6330°N, 0.0000°E)
Time: 03:02:45
(UTC+00:00)

A-11 Canister half - Pass Details

Date: 22 June 2019
Orbit: 1514 x 1685 km, 47.2° (Epoch: 17 July)

Event Time Altitude Azimuth Distance (km) Brightness Sun altitude
Rises 07:11:14 0° 198° (SSW) 4,924 11.3 22.4°
Reaches altitude 10° 07:14:48 10° 189° (S) 3,940 11.0 23.2°
Maximum altitude 07:23:42 35° 127° (SE) 2,461 10.8 25.2°
Drops below altitude 10° 07:32:27 10° 66° (ENE) 3,896 12.9 27.2°
Sets 07:35:55 0° 58° (ENE) 4,864 12.8 28.0°
